Find Starlink 31047

NORAD ID: 58783 Int'l Des: 2024-011 Owner: SPXS Country: US Constellation: starlink operational
LEOCIRCULAR

当前视图

正在加载3D地球...

About Starlink 31047

Starlink 31047 (NORAD 58783) is a starlink constellation satellite (v2 mini) launched Jan 14, 2024 by SPXS of US. It operates in LEO, CIRCULAR orbit with a mass of 730.00 kg.

关于 Starlink 31047

正在加载描述...

即将过境

Passes for default location (London). Set your location on the main map for personalized predictions.

高度历史

Loading altitude history...

两行轨道根数

1 58783U 24011U 26168.53007569 -.00000778 00000-0 -11887-4 0 9990
2 58783 53.1609 253.3265 0001353 114.1403 245.9741 15.34399136135789
Epoch: Jun 17, 2026 • Age: 14 hours

当前状态

高度 477.4 km
速度 7.63 km/s
星下点 -42.55°S, 173.63°E
发射日期 Jan 14, 2024
运行时间 2.4 years
类型 internet

技术详情

分类 Payload
质量 730.00 kg
干质量 700.00 kg
总质量 730.00 kg
长度 0.30 m
直径 4.10 m
跨度 29.00 m
形状 Box + pan
制造商 SPXS
平台类型 Starlink V2M
阶段状态 In Orbit
所有者/国家 SPXS/US

Most Searched